Change the Weather History Date:

Sunday, January 5, 2014

  Actual Average (KEDW) Record (KEDW)
Temperature  
Mean Temperature 44 °F -  
Max Temperature 60 °F 57 °F 66 °F (2003)
Min Temperature 28 °F 30 °F 17 °F (2013)
Degree Days  
Heating Degree Days 21    
Moisture  
Dew Point 5 °F    
Average Humidity 26    
Maximum Humidity 54    
Minimum Humidity 8    
Precipitation  
Precipitation 0.00 in - - ()
Sea Level Pressure  
Sea Level Pressure 30.26 in    
Wind  
Wind Speed 4 mph (NNW)    
Max Wind Speed 9 mph    
Max Gust Speed -    
Visibility 10 miles    
Events      
Averages and records for this station are not official NWS values.
T = Trace of Precipitation, MM = Missing Value Source: NWS Daily Summary

Daily Weather History Graph

Daily Weather History Graph

Search for Another Location

Airport or City:

Trip Planner

Search our weather history database for the weather conditions in past years. The results will help you decide how hot, cold, wet, or windy it might be!

Date:

Astronomy

Jan. 05, 2014 Rise Set
Actual Time 6:59 AM PST 4:54 PM PST
Civil Twilight 6:32 AM PST 5:22 PM PST
Nautical Twilight 6:00 AM PST 5:53 PM PST
Astronomical Twilight 5:29 AM PST 6:24 PM PST
Moon 9:56 AM PST (1/5) 10:13 PM PST (1/5)
Length of Visible Light 10h 50m
Length of Day
9h 54m
Waxing Crescent, 25% of the Moon is Illuminated
Jan 5
Waxing Crescent
Jan 7
First Quarter
Jan 15
Full
Jan 23
Last Quarter
Jan 30
New

Hourly Weather History & Observations

Time (PST) Temp. Windchill Dew Point Humidity Pressure Visibility Wind Dir Wind Speed Gust Speed Precip Events Conditions
12:55 AM 33.1 °F 28.7 °F 16.0 °F 50% 30.13 in 10.0 mi North 4.6 mph - N/A   Clear
1:55 AM 34.0 °F 29.8 °F 17.1 °F 50% 30.16 in 10.0 mi North 4.6 mph - N/A   Clear
2:55 AM 30.9 °F 26.2 °F 16.0 °F 54% 30.18 in 10.0 mi NNW 4.6 mph - N/A   Clear
3:55 AM 35.1 °F 28.6 °F 15.1 °F 44% 30.18 in 10.0 mi North 8.1 mph - N/A   Clear
4:55 AM 32.0 °F 25.6 °F 15.1 °F 50% 30.21 in 10.0 mi WNW 6.9 mph - N/A   Clear
5:55 AM 30.9 °F 22.8 °F 10.9 °F 43% 30.23 in 10.0 mi North 9.2 mph - N/A   Clear
6:55 AM 28.9 °F - 9.0 °F 43% 30.27 in 10.0 mi Calm Calm - N/A   Clear
7:55 AM 36.0 °F - 10.9 °F 36% 30.30 in 10.0 mi Calm Calm - N/A   Clear
8:55 AM 46.9 °F - 10.0 °F 22% 30.32 in 10.0 mi North 4.6 mph - N/A   Clear
9:55 AM 53.1 °F - 9.0 °F 17% 30.32 in 10.0 mi NNE 5.8 mph - N/A   Clear
10:55 AM 55.9 °F - -0.0 °F 10% 30.31 in 10.0 mi Variable 5.8 mph - N/A   Clear
11:55 AM 57.9 °F - 1.0 °F 10% 30.28 in 10.0 mi Calm Calm - N/A   Clear
12:55 PM 59.0 °F - -0.0 °F 9% 30.25 in 10.0 mi Calm Calm - N/A   Clear
1:55 PM 59.0 °F - -2.0 °F 8% 30.23 in 10.0 mi SE 3.5 mph - N/A   Clear
2:55 PM 60.1 °F - -2.9 °F 8% 30.23 in 10.0 mi Calm Calm - N/A   Clear
3:55 PM 60.1 °F - -2.9 °F 8% 30.23 in 10.0 mi Calm Calm - N/A   Clear
4:55 PM 55.9 °F - -2.0 °F 9% 30.25 in 10.0 mi Calm Calm - N/A   Clear
5:55 PM 43.0 °F 39.5 °F -0.9 °F 16% 30.28 in 10.0 mi NW 5.8 mph - N/A   Clear
6:55 PM 37.9 °F 35.5 °F -0.9 °F 19% 30.31 in 10.0 mi North 3.5 mph - N/A   Clear
7:55 PM 36.0 °F - -0.9 °F 21% 30.32 in 10.0 mi Calm Calm - N/A   Clear
8:55 PM 33.1 °F - -0.9 °F 23% 30.33 in 10.0 mi Calm Calm - N/A   Clear
9:55 PM 32.0 °F 27.5 °F -0.9 °F 24% 30.33 in 10.0 mi NW 4.6 mph - N/A   Clear
10:55 PM 30.9 °F 25.2 °F -0.0 °F 27% 30.32 in 10.0 mi WNW 5.8 mph - N/A   Clear
11:55 PM 30.0 °F 25.2 °F -0.9 °F 27% 30.33 in 10.0 mi North 4.6 mph - N/A   Clear